Location: Branche des Alpilles
(43.6087°N, 4.6976°E)
Time: 04:49:23
(UTC+00:00)

Meteor 1-25 Rocket - Pass Details

Date: 30 November 2020
Orbit: 837 x 891 km, 81.2° (Epoch: 27 January)

Event Time Altitude Azimuth Distance (km) Brightness Sun altitude
Rises 16:39:23 0° 354° (N) 3,423 7.2 -6.2°
Reaches altitude 10° 16:41:54 10° 0° (N) 2,491 6.4 -6.6°
Maximum altitude 16:47:22 48° 75° (ENE) 1,113 4.5 -7.5°
Drops below altitude 10° 16:52:51 10° 149° (SSE) 2,509 6.6 -8.5°
Sets 16:55:23 0° 155° (SSE) 3,450 7.4 -8.9°
